Theta_e
334 343 347 347 347 345 341 339 339 337 337 338 337 337 338 337 336 338 341 339 338 336 338 338 338 340 342 341 342 342 342 341 342 341 339 337 336 334 334 332 331 325 330
337 344 345 346 346 345 342 338 336 338 338 336 337 337 335 336 336 337 339 336 340 339 339 338 336 338 340 340 341 341 340 338 338 337 336 336 333 333 332 330 330 326 329
339 343 343 344 345 344 340 339 336 339 336 336 335 336 338 336 336 337 339 341 340 340 339 338 337 335 339 340 340 339 338 336 336 334 332 326 325 331 330 329 329 329 329
340 343 343 342 344 341 341 340 338 337 336 338 338 340 338 337 338 337 339 339 340 339 339 338 338 336 339 339 340 339 337 336 334 331 324 324 324 330 329 329 328 327 327
340 342 342 343 343 342 342 341 339 336 341 339 339 340 339 337 337 339 339 339 339 338 337 337 338 339 339 338 339 338 337 335 332 326 322 322 323 326 328 327 325 326 325
338 342 341 343 344 343 342 341 340 339 338 338 337 337 339 339 337 338 340 339 339 337 337 337 337 338 338 338 338 337 337 335 331 324 323 326 322 328 328 326 324 325 324
337 340 341 342 342 342 342 340 339 337 339 339 338 339 340 338 337 338 338 339 338 337 336 336 336 337 336 336 337 336 336 333 327 324 322 321 322 327 327 325 325 324 323
337 340 340 336 338 340 340 340 339 341 339 338 337 337 337 337 337 337 338 338 336 336 335 335 335 335 334 335 336 335 333 330 328 325 322 321 328 326 326 324 324 322 322
338 339 338 337 335 334 336 337 338 338 337 337 337 337 337 338 338 338 338 337 336 335 334 334 333 333 333 334 334 332 330 328 326 325 324 322 328 326 325 324 323 321 321
335 337 336 335 336 335 334 331 333 335 335 335 335 333 332 333 334 334 333 335 335 334 333 332 331 331 329 330 331 329 328 327 326 325 324 324 327 325 324 323 322 321 320
333 335 335 335 335 333 332 329 329 331 331 330 329 327 327 328 329 330 329 332 332 332 331 330 327 326 325 327 328 327 326 326 325 324 323 327 325 324 324 322 321 320 320
328 332 334 334 333 332 334 330 331 331 329 327 327 326 326 325 327 329 325 327 329 329 330 328 326 324 319 316 318 323 321 320 320 322 323 326 324 324 322 322 320 319 320
331 333 334 333 332 330 331 331 331 330 328 326 324 323 323 326 326 325 324 326 325 322 321 322 320 318 315 315 314 314 317 316 315 315 319 325 324 322 322 322 319 319 318
332 334 334 334 329 327 330 331 329 326 328 327 324 323 324 325 324 323 322 323 322 319 317 315 318 318 314 314 313 313 312 312 313 313 315 320 324 322 322 321 319 319 317
331 333 334 333 327 327 329 331 329 327 329 327 323 323 324 324 323 322 321 321 318 319 317 316 315 316 315 312 311 311 310 309 309 311 312 316 322 321 320 320 320 319 316
330 331 334 332 327 329 330 330 328 329 330 327 323 322 323 324 324 323 321 320 319 322 320 316 313 311 311 310 309 309 308 309 308 307 307 310 318 321 319 319 318 320 317
328 329 332 333 328 329 330 331 328 328 330 326 324 322 323 324 324 323 321 319 319 320 319 317 312 310 308 309 307 307 306 305 305 306 306 306 308 315 319 317 318 318 316
327 329 329 328 327 325 325 327 329 328 326 324 324 322 322 323 323 323 322 322 319 319 318 316 309 307 306 305 303 302 301 301 301 301 302 305 305 306 311 314 314 315 314
328 329 328 327 326 324 323 323 323 325 324 322 321 321 321 323 323 323 324 323 322 320 318 315 308 307 304 302 301 299 298 298 297 298 297 298 301 302 302 310 310 311 313
327 328 328 327 327 325 323 322 320 321 321 321 319 321 321 322 323 323 324 322 321 319 317 315 309 306 304 301 302 299 297 297 295 294 294 297 296 299 299 299 299 302 310
324 326 327 326 326 326 323 321 319 317 320 320 319 320 321 321 322 324 323 322 321 319 318 315 310 306 302 299 297 295 296 296 295 293 293 292 294 294 295 296 296 298 301
322 325 325 326 326 326 325 323 322 318 319 321 320 319 321 321 321 324 323 322 321 319 318 315 310 304 302 301 296 295 292 293 294 295 293 292 291 292 292 293 293 295 296
321 322 324 325 325 326 326 324 322 320 320 319 318 317 319 322 322 321 323 323 321 320 317 316 311 307 300 300 300 298 293 292 292 294 293 292 291 290 291 291 292 292 293
321 323 324 325 325 326 326 324 322 319 318 321 320 320 319 321 322 322 323 323 321 320 318 317 313 309 303 300 299 301 300 297 292 290 292 292 292 291 290 291 291 291 291
320 321 322 323 324 325 325 325 323 321 321 321 322 319 319 318 321 322 322 321 321 321 320 318 314 310 306 303 302 298 298 298 298 294 290 290 292 292 292 292 291 290 291
319 321 322 321 323 324 325 325 323 322 321 320 320 320 320 319 319 321 322 321 321 321 320 319 316 311 307 305 303 300 300 298 298 296 294 292 291 292 293 292 292 292 291
Wind_Speed
11 12 19 20 20 21 19 18 17 17 17 18 17 17 16 16 17 15 15 16 15 15 16 16 16 16 17 17 18 20 23 24 24 25 24 23 23 22 22 21 18 14 22
16 16 19 20 19 20 18 18 17 17 16 17 17 16 16 16 15 15 15 14 15 17 17 17 17 15 16 17 18 22 24 23 23 21 20 20 22 22 22 21 20 18 21
17 16 16 20 20 21 19 17 18 17 17 17 16 15 16 15 15 14 15 13 15 18 18 17 17 16 14 15 18 22 23 23 22 20 17 9 12 21 21 20 22 21 22
16 16 15 19 21 21 20 19 18 17 17 17 14 17 17 14 13 14 15 13 18 18 18 17 17 17 15 15 18 22 22 21 19 16 8 10 12 21 20 21 21 21 21
16 15 15 17 22 21 20 19 18 18 15 15 13 14 16 16 12 14 15 16 18 19 18 17 16 16 16 14 17 20 21 21 18 13 9 10 10 16 20 21 18 20 21
15 15 16 18 21 21 19 20 18 18 17 16 14 13 14 16 14 13 14 15 18 18 17 16 15 16 16 14 18 18 19 18 14 9 9 13 10 19 19 20 19 20 20
14 14 15 18 20 20 18 18 18 19 17 15 15 15 16 17 14 13 14 17 19 18 17 16 15 16 16 16 16 16 17 16 12 7 6 6 12 18 19 19 19 19 20
16 15 15 15 16 18 18 17 17 15 18 14 14 14 15 15 14 14 16 18 18 18 17 16 15 16 15 14 16 17 16 15 11 9 6 7 16 18 18 18 19 19 19
15 14 13 13 11 13 13 13 13 17 16 14 14 13 12 12 13 13 15 17 18 18 16 16 15 17 17 18 18 18 14 12 9 7 8 6 16 17 17 16 19 17 18
13 14 13 12 11 8 9 11 11 12 13 12 13 11 11 11 12 12 11 15 18 17 16 15 14 15 15 14 17 17 15 12 9 7 5 8 16 17 16 16 18 17 16
10 12 12 13 12 9 8 8 10 12 12 12 13 12 10 5 6 8 9 13 16 16 15 15 13 12 11 14 15 14 11 6 7 4 5 12 15 16 16 15 17 15 16
11 12 11 13 13 10 9 7 7 7 7 5 6 6 5 6 5 8 9 12 12 12 13 14 12 9 7 5 4 9 6 7 5 4 3 12 16 15 14 14 15 14 16
12 10 11 13 13 12 9 6 4 5 5 5 7 5 5 6 6 5 4 5 6 7 3 5 4 3 6 5 5 4 7 6 5 3 5 11 14 14 13 14 12 12 14
12 15 14 13 12 11 7 6 7 6 6 6 6 6 6 5 5 5 4 5 5 4 5 4 2 6 6 6 6 6 6 6 5 3 5 9 12 12 12 12 10 12 12
14 12 14 14 14 11 12 7 7 7 7 8 6 6 6 7 6 6 5 4 4 4 4 4 4 5 6 6 6 7 6 6 6 3 3 11 8 10 11 10 10 11 9
10 13 15 14 14 14 12 13 9 7 8 7 6 6 8 8 7 7 7 6 5 5 5 5 5 5 4 5 6 6 6 5 6 6 4 5 12 8 9 9 8 10 9
11 10 14 12 11 14 14 12 9 7 9 7 8 7 9 9 9 9 7 4 5 4 8 6 4 4 5 4 6 5 5 5 5 6 4 4 5 12 9 8 8 9 8
13 14 12 8 12 13 12 10 9 9 6 7 9 7 8 8 11 9 7 7 5 4 5 6 5 4 4 4 4 3 4 4 5 5 4 4 4 3 8 8 5 6 8
15 15 14 11 8 10 11 10 8 9 7 6 7 7 7 7 10 10 8 8 8 5 4 6 3 6 4 4 4 3 2 3 4 3 4 4 4 4 3 6 6 4 6
16 15 14 11 10 7 6 7 5 5 6 6 7 8 9 6 7 8 7 8 7 6 5 5 6 3 4 5 5 4 2 2 2 3 4 3 4 5 4 4 2 2 3
11 15 16 14 12 9 5 8 7 5 5 6 7 10 10 8 7 8 7 9 8 9 8 7 4 8 2 4 4 2 1 3 4 4 4 4 5 5 5 5 4 2 1
15 18 15 15 15 12 8 6 6 5 3 6 6 6 9 9 7 8 10 10 10 8 10 9 6 4 3 8 4 3 3 3 4 5 4 5 7 5 5 6 6 5 4
12 13 16 17 16 14 14 6 4 4 3 4 5 6 8 11 12 8 11 11 11 10 10 10 9 12 4 7 7 5 3 5 2 2 6 5 6 4 5 6 6 6 6
11 12 16 16 15 15 16 13 12 11 11 9 8 7 9 11 13 11 12 13 12 10 11 11 9 10 6 9 1 7 3 4 4 2 3 5 5 7 6 5 6 6 7
10 10 11 15 16 16 16 16 13 12 10 9 7 9 10 10 12 13 13 13 14 10 12 13 12 12 10 8 9 3 2 3 3 3 3 4 3 5 7 7 7 7 7
9 12 12 14 17 17 17 18 18 19 13 10 10 10 9 9 9 11 13 12 12 13 13 12 12 14 12 9 9 5 5 6 6 4 3 3 4 5 8 7 9 9 9
Wind_Direction
153 147 143 137 133 128 124 127 122 119 113 112 113 109 107 108 108 108 98 99 104 97 95 91 88 87 85 88 85 89 90 89 84 82 82 83 83 81 79 76 69 70 70
141 145 143 139 134 127 127 129 128 122 122 117 116 114 110 109 110 108 103 107 102 101 96 91 95 90 92 92 91 96 94 89 83 82 79 82 81 78 78 77 76 74 70
139 143 144 144 137 133 136 136 132 130 127 122 118 120 114 117 120 121 115 112 112 103 97 93 94 99 94 99 104 104 99 94 89 82 77 73 79 80 78 76 76 74 72
140 144 146 146 138 138 142 140 137 136 129 127 134 126 121 122 122 117 104 112 104 104 97 98 95 99 99 101 107 112 106 99 92 84 77 82 78 77 80 78 75 71 68
139 144 144 147 139 142 144 141 139 137 131 131 125 122 129 123 124 115 106 106 111 102 102 95 93 94 94 96 119 117 108 103 96 91 87 84 82 81 80 75 71 72 70
143 142 144 147 141 144 147 143 141 142 139 136 131 118 129 122 115 104 103 115 109 105 103 99 95 93 80 87 125 117 118 111 105 96 87 86 83 85 83 79 81 76 72
135 140 142 145 146 147 149 147 147 146 142 130 133 116 124 122 119 111 111 117 110 108 104 100 96 92 83 85 110 112 100 97 97 83 81 90 85 87 86 83 80 76 70
136 144 144 141 150 149 150 151 155 142 126 140 129 126 127 124 126 121 122 120 115 110 105 101 97 91 78 84 101 108 96 98 103 96 89 91 91 87 88 84 82 75 73
137 140 142 145 151 146 146 148 145 136 136 133 130 137 132 132 127 121 126 126 118 112 107 102 97 91 82 81 85 87 84 93 103 106 94 86 91 92 91 89 84 77 74
138 142 146 149 147 150 147 141 141 135 139 142 133 123 118 112 111 117 127 125 120 116 110 103 96 93 85 82 86 89 87 88 96 90 91 98 97 98 96 92 86 79 77
138 148 145 152 154 147 139 149 139 144 132 125 125 128 118 120 118 117 124 120 126 117 116 110 101 93 80 82 91 87 90 89 91 80 94 100 102 104 101 95 89 81 77
148 153 155 157 158 152 153 144 140 137 135 131 137 148 137 131 127 118 117 119 118 119 123 123 117 83 68 71 82 87 90 86 77 67 97 103 104 104 104 101 94 84 80
162 158 164 166 160 156 155 145 152 150 149 147 157 157 124 121 121 118 118 115 118 120 107 119 105 72 85 91 81 87 100 87 80 63 6 111 107 110 107 96 100 93 82
165 161 169 172 163 156 149 152 156 161 159 161 176 156 134 132 135 133 126 132 128 140 153 138 140 109 86 82 90 98 99 102 93 77 52 56 111 119 116 120 115 100 84
165 165 173 172 168 155 157 156 164 175 173 170 174 160 154 141 146 140 143 146 162 166 149 153 131 104 102 88 80 92 96 103 98 96 72 57 100 128 122 120 120 110 99
169 174 176 180 174 164 164 167 171 188 170 170 177 162 171 149 151 152 160 173 184 191 148 147 128 122 110 107 95 93 104 110 111 94 89 67 64 72 128 126 133 116 113
194 169 175 180 171 172 165 169 170 183 169 168 179 167 174 156 159 157 167 172 187 171 134 132 114 109 107 106 107 105 106 108 119 123 110 89 73 62 63 121 126 131 130
187 185 178 165 185 167 167 162 174 185 177 172 177 174 171 167 159 162 168 178 184 161 142 138 136 120 124 124 125 119 114 113 119 115 123 126 111 89 79 76 107 138 134
186 185 189 171 167 178 173 165 165 177 175 165 166 177 176 173 166 163 170 172 170 147 152 141 145 143 142 132 131 127 131 131 142 131 129 129 131 133 126 114 93 57 157
182 185 186 184 173 159 167 163 145 152 168 159 169 182 181 176 185 171 156 154 156 157 167 151 157 152 146 152 134 130 171 176 175 175 165 157 145 154 156 148 116 44 124
170 173 187 181 186 167 158 178 170 170 171 177 179 177 181 186 185 170 159 159 162 168 177 172 152 159 131 134 101 53 345 237 209 211 191 181 183 180 174 171 172 164 172
179 184 180 190 188 186 179 180 185 157 173 176 183 181 185 183 174 185 168 170 171 169 177 181 162 148 132 177 138 121 201 284 252 216 206 195 197 189 189 189 182 172 174
183 187 185 188 187 191 184 173 134 129 116 171 187 188 191 189 198 181 176 174 179 179 185 190 182 176 157 200 185 153 147 219 150 195 223 207 194 198 199 188 191 181 176
211 191 190 185 187 194 187 187 186 187 196 201 195 192 195 196 200 192 183 178 183 187 186 194 182 189 152 189 224 240 237 147 178 206 242 221 199 206 201 201 189 189 174
212 205 199 195 189 190 193 194 203 200 195 194 190 183 194 196 203 204 197 186 186 190 190 193 187 193 194 180 198 160 174 229 212 139 203 224 219 206 205 198 196 190 185
233 203 200 184 194 192 190 197 201 213 198 195 186 193 198 200 198 202 202 201 197 195 192 195 196 199 198 203 203 206 188 173 196 180 176 191 204 213 203 199 199 199 193